Location: Unspecified
(0.0000°N, 0.0000°E)
Time: 20:08:52
(UTC+00:00)

Envisat - Pass Details

Date: 22 January 2018
Orbit: 764 x 766 km, 98.2° (Epoch: 17 January)

Event Time Altitude Azimuth Distance (km) Brightness Sun altitude
Rises 20:31:52 0° 185° (S) 3,230 6.6 -32.8°
Reaches altitude 10° 20:34:21 10° 193° (SSW) 2,301 5.8 -33.3°
Maximum altitude 20:38:54 34° 258° (WSW) 1,232 4.4 -34.4°
Enters shadow 20:39:26 34° 271° (W) 1,252 4.4 -34.5°
